Вернуться в каталог

COSMOS 1867 COOLANT

АктивенLEO
NORAD 39674·DEBRIS·🇷🇺 Russia

Запущен Jul 10, 1987 с Baikonur Cosmodrome

Loading…

Ближайшие Пролёты (ближайшие 24 часа)

TLE

СвежийSource: Space-Track

Эпоха: Sep 14, 2026, 20:55 UTC

1 39674U 87060AM  26257.87211212  .00000227  00000-0  11487-3 0  9991
2 39674  65.0086 116.6583 0019703 279.7502  80.1359 14.34864566649561

Отслеживайте COSMOS 1867 COOLANT в реальном времени с AllMySat

Download on the App Store